International Virtual Aviation Organisation

Russian Federation and Kazakhstan MCD

 

Карточка аэропорта UWKD

Внимание!
Информация на этой странице в стадии наполнения.
Если вы не увидели какой-то информации, или заметили неточность - пожалуйста сообщите нам!
Спасибо!
Команда RU-STAFF
Название аэропортаКазань
Название аэропорта (англ.)Kazan
Превышение413 ft. (125.9 m.)
Координаты55°36.498', 49°16.668'
Высота перехода900m
Эшелон переходаQFE>=749mm:FL050; QFE<749=>722:FL060; QFE<722:FL070
Коды ответчика6732-6737
Зона ОрВДСамара РПИ (UWWW)
Данные METARUWKD 270330Z 12004MPS 6000 -SN OVC005 M06/M08 Q1022 R11/420149 NOSIG RMK QFE756/1008
Проноз погоды (TAF)UWKD 270200Z 2703/2803 13003MPS 3100 -SN BR OVC007 TXM04/2711Z TNM08/2704Z TEMPO 2703/2706 0500 FZFG OVC002 FM270900 13005MPS 6000 -SN OVC016 FM271800 12006G12MPS 2000 -SN BLSN OVC005 TEMPO 2721/2803 1000 SHSN BLSN BKN003 BKN010CB
NOTAMshow/hide NOTAM
AWOS   TABLE

Информация о ВПП

ВПП Длина ВПП (м.) Покрытие Курс ВПП Частота ILS
113750Цементобетон112110.5
293750Цементобетон292111.7

Диспетчерские позиции

Позывной Наименование органа УВД Частота
UWKD_R_APPКазань-Круг119.400
UWKD_TWRКазань-Старт120.300
UWKD_GNDКазань-Руление121.7
UWKD_APPКазань - Подход128.625



Спутниковое изображение